星链-35235(STARLINK-35235)

导读

STARLINK-35235是美国SpaceX星链星座的一员,于2025年9月21日发射入轨。星链系统旨在构建全球覆盖的低轨卫星互联网,为偏远地区、海洋及灾害区域提供高速网络服务。作为批量部署的Starlink卫星之一,它延续了该星座标准化设计,进一步扩充了低轨通信网络的覆盖范围与容量,推动全球互联基础设施建设。

基本信息
目录编号:
65682
目录名称:
STARLINK-35235
国际标识:
2025-212G
轨道中心:
EARTH
卫星名称:
星链-35235
卫星全名:
星链-35235(STARLINK-35235)
卫星状态:
在轨 (已飞行348 天)
发射日期:
2025-09-21 UTC
国别 :
美国 (US)
星等 :
--
轨道信息
数据来源 国际轨道数据 AOE轨道数据
星历时间 2026-09-03T11:37:00+0800
1天前
查看轨道信息
2026-09-03T23:00:00+0800
14小时前
查看轨道信息
半长轴 6840.922km 6840.953km
偏心率 0.0001621 0.0001535
轨道倾角 53.158° 53.160°
近地点辐角 114.510° 96.669°
升交点赤经 237.131° 234.919°
平近点角 245.607° 4.865°
近地点 461.676km 461.765km
远地点 463.894km 463.867km
周期 93.849分钟 93.850分钟
每日圈数 15.343728 15.343621
详细信息
固有亮度:
5
最大亮度:
2.5
卫星平台:
Starlink V1.0
覆盖范围:
全球
运营商:
太空探索技术公司
运营商所在国:
美国
制造商(研发单位):
太空探索技术公司
制造商所在国:
美国
使用方式:
暂无
卫星简介
Starlink 计划是 SpaceX 推出的全球卫星互联网项目,通过发射低轨道卫星,为全球尤其是偏远地区提供高速、低延迟的互联网服务。自 2019 年起,Starlink 已部署数千颗卫星,旨在缩小全球数字鸿沟,推动互联网普及。该项目还为军事、航空等行业提供通信支持,带来广泛经济效益。
2D轨道图
3D轨道图
轨道高度分析图
轨道倾角分析图
轨道综合分析图
查看轨道综合分析图
交会数据列表
事件ID 空间交会对象 最接近时刻(TCA) 交会距离 交会风险概率(CRP) 交会风险指数(CRI) 操作
CDM_260904-125606-568206-616321
2026-09-04T
12:56:49+0000
0.394 km
远距离
2.35129E-4 高风险 0.82
CDM_260904-011306-568206-616321
2026-09-04T
01:13:22+0000
0.574 km
远距离
9.708918E-5 中风险 0.75
CDM_260905-045006-568206-984621
2026-09-05T
04:50:30+0000
1.123 km
极远距离
1.586268E-5 中风险 0.59
CDM_260904-201406-568206-984621
2026-09-04T
20:14:41+0000
2.638 km
极远距离
1.432138E-6 低风险 0.38
CDM_260904-024706-568206-616321
2026-09-04T
02:47:10+0000
2.302 km
极远距离
1.386446E-6 低风险 0.38
CDM_260904-012705-254806-568221
2026-09-04T
01:27:02+0000
2.733 km
极远距离
1.351036E-6 低风险 0.38
CDM_260903-213205-254806-568221
2026-09-03T
21:32:29+0000
2.745 km
极远距离
1.342772E-6 低风险 0.38
CDM_260904-022805-233606-568221
2026-09-04T
02:28:42+0000
2.991 km
极远距离
1.104354E-6 低风险 0.36
CDM_260904-143006-568206-616321
2026-09-04T
14:30:37+0000
2.794 km
极远距离
1.007936E-6 低风险 0.35